Tracking 28790 objects as of 18-Apr-2024
HD Live streaming from Space Station
objects crossing your sky now

FENGYUN 1C DEB

Track FENGYUN 1C DEB now!
10-day predictions


NORAD ID: 30290
Int'l Code: 1999-025ZB
Perigee: 741.2 km
Apogee: 807.7 km
Inclination: 102.6 °
Period: 100.2 minutes
Semi major axis: 7145 km
RCS: 0.015 m2 (small)
Launch date: May 10, 1999
Source: People's Republic of China (PRC)
Launch site: Taiyaun Space Center, China (TSC)

Note: This is SATELLITE DEBRIS
Your satellite tracking list
Your tracking list is empty




NASA's NSSDC Master Catalog

Two Line Element Set (TLE):
1 30290U 99025ZB  24109.40837413  .00029049  00000-0  95915-2 0  9990
2 30290 102.6384 260.3796 0046565 193.7077 189.5042 14.37333631891149
Source of the keplerian elements: AFSPC